2023/01/27 00:00:00,42.9,-2.4
2023/01/27 00:10:00,42.9,-2.4
2023/01/27 00:20:00,42.8,-2.9
2023/01/27 00:30:00,42.8,-2.8
2023/01/27 00:40:00,42.7,-2.5
2023/01/27 00:50:00,42.6,-2.5
2023/01/27 01:00:00,42.5,-2.5
2023/01/27 01:10:00,42.4,-2.3
2023/01/27 01:20:00,42.3,-2.7
2023/01/27 01:30:00,42.3,-2.5
2023/01/27 01:40:00,42.2,-1.8
2023/01/27 01:50:00,42.2,-2.1
2023/01/27 02:00:00,42.1,-2.1
2023/01/27 02:10:00,42.1,-2.6
2023/01/27 02:20:00,42.0,-2.3
2023/01/27 02:30:00,42.1,-2.5
2023/01/27 02:40:00,42.0,-2.6
2023/01/27 02:50:00,42.0,-2.6
2023/01/27 03:00:00,42.0,-2.8
2023/01/27 03:10:00,41.9,-2.3
2023/01/27 03:20:00,41.9,-2.3
2023/01/27 03:30:00,41.8,-2.2
2023/01/27 03:40:00,41.8,-2.4
2023/01/27 03:50:00,41.8,-2.2
2023/01/27 04:00:00,41.7,-2.3
2023/01/27 04:10:00,41.7,-2.4
2023/01/27 04:20:00,41.6,-2.4
2023/01/27 04:30:00,41.6,-2.5
2023/01/27 04:40:00,41.5,-2.7
2023/01/27 04:50:00,41.4,-2.6
2023/01/27 05:00:00,41.3,-2.4
2023/01/27 05:10:00,41.3,-2.2
2023/01/27 05:20:00,41.2,-2.2
2023/01/27 05:30:00,41.2,-2.1
2023/01/27 05:40:00,41.2,-1.9
2023/01/27 05:50:00,41.2,-1.9
2023/01/27 06:00:00,41.1,-1.4
2023/01/27 06:10:00,41.1,-1.6
2023/01/27 06:20:00,41.1,-1.1
2023/01/27 06:30:00,41.3,-1.2
2023/01/27 06:40:00,41.3,-1.2
2023/01/27 06:50:00,41.5,-1.5
2023/01/27 07:00:00,41.8,-1.4
2023/01/27 07:10:00,42.2,-1.3
2023/01/27 07:20:00,42.4,-1.2
2023/01/27 07:30:00,42.5,-1.1
2023/01/27 07:40:00,42.6,-0.8
2023/01/27 07:50:00,42.6,-0.6
2023/01/27 08:00:00,42.5,-0.7
2023/01/27 08:10:00,42.4,-0.4
2023/01/27 08:20:00,42.4,-0.3
2023/01/27 08:30:00,42.3, 0.1
2023/01/27 08:40:00,42.3, 0.0
2023/01/27 08:50:00,42.3, 0.6
2023/01/27 09:00:00,42.3, 0.7
2023/01/27 09:10:00,42.3, 0.5
2023/01/27 09:20:00,42.3, 1.5
2023/01/27 09:30:00,42.2, 1.2
2023/01/27 09:40:00,42.1, 1.4
2023/01/27 09:50:00,42.0, 2.0
2023/01/27 10:00:00,41.9, 2.1
2023/01/27 10:10:00,41.7, 1.8
2023/01/27 10:20:00,41.6, 2.0
2023/01/27 10:30:00,41.4, 2.0
2023/01/27 10:40:00,41.3, 1.4
2023/01/27 10:50:00,41.4, 1.0
2023/01/27 11:00:00,41.8, 1.0
2023/01/27 11:10:00,41.8, 0.8
2023/01/27 11:20:00,42.0, 0.8
2023/01/27 11:30:00,42.5, 0.7
2023/01/27 11:40:00,42.7, 1.3
2023/01/27 11:50:00,42.6, 1.5
2023/01/27 12:00:00,42.0, 2.6
2023/01/27 12:10:00,42.0, 4.5
2023/01/27 12:20:00,42.0, 6.4
2023/01/27 12:30:00,41.8, 5.8
2023/01/27 12:40:00,41.5, 3.5
2023/01/27 12:50:00,41.3, 2.6
2023/01/27 13:00:00,41.1, 1.8
2023/01/27 13:10:00,40.9, 2.3
2023/01/27 13:20:00,40.8, 3.7
2023/01/27 13:30:00,40.6, 4.1
2023/01/27 13:40:00,40.3, 2.9
2023/01/27 13:50:00,40.3, 1.2
2023/01/27 14:00:00,40.9, 0.4
2023/01/27 14:10:00,41.1, 0.0
2023/01/27 14:20:00,41.4, 0.1
2023/01/27 14:30:00,42.2,-0.7
2023/01/27 14:40:00,42.6,-0.4
2023/01/27 14:50:00,42.5,-0.4
2023/01/27 15:00:00,42.5,-0.4
2023/01/27 15:10:00,42.7,-0.7
2023/01/27 15:20:00,43.0,-0.8
2023/01/27 15:30:00,43.5,-0.7
2023/01/27 15:40:00,43.9,-0.7
2023/01/27 15:50:00,43.8,-0.7
2023/01/27 16:00:00,43.7,-0.5
2023/01/27 16:10:00,43.6,-0.4
2023/01/27 16:20:00,43.4,-0.4
2023/01/27 16:30:00,43.5,-0.7
2023/01/27 16:40:00,43.6,-0.5
2023/01/27 16:50:00,44.0,-1.0
2023/01/27 17:00:00,44.0,-0.9
2023/01/27 17:10:00,44.1,-1.0
2023/01/27 17:20:00,44.0,-0.9
2023/01/27 17:30:00,43.9,-0.7
2023/01/27 17:40:00,43.8,-0.7
2023/01/27 17:50:00,44.0,-1.0
2023/01/27 18:00:00,43.6,-1.0
2023/01/27 18:10:00,44.0,-1.2
2023/01/27 18:20:00,44.4,-1.7
2023/01/27 18:30:00,44.3,-1.4
2023/01/27 18:40:00,44.3,-1.4
2023/01/27 18:50:00,44.4,-1.7
2023/01/27 19:00:00,45.6,-1.7
2023/01/27 19:10:00,46.0,-1.9
2023/01/27 19:20:00,45.9,-1.7
2023/01/27 19:30:00,46.0,-2.0
2023/01/27 19:40:00,45.7,-1.8
2023/01/27 19:50:00,46.0,-1.7
2023/01/27 20:00:00,46.6,-1.7
2023/01/27 20:10:00,46.4,-1.9
2023/01/27 20:20:00,46.3,-1.5
2023/01/27 20:30:00,46.2,-1.9
2023/01/27 20:40:00,47.4,-2.2
2023/01/27 20:50:00,47.5,-2.1
2023/01/27 21:00:00,47.3,-1.5
2023/01/27 21:10:00,47.1,-2.3
2023/01/27 21:20:00,47.7,-2.0
2023/01/27 21:30:00,48.4,-2.0
2023/01/27 21:40:00,48.5,-1.6
2023/01/27 21:50:00,48.3,-1.4
2023/01/27 22:00:00,48.4,-1.4
2023/01/27 22:10:00,48.9,-1.4
2023/01/27 22:20:00,48.9,-1.4
2023/01/27 22:30:00,49.2,-1.8
2023/01/27 22:40:00,49.6,-1.5
2023/01/27 22:50:00,49.9,-1.8
2023/01/27 23:00:00,50.6,-2.0
2023/01/27 23:10:00,51.7,-1.9
2023/01/27 23:20:00,52.8,-2.1
2023/01/27 23:30:00,54.1,-1.9
2023/01/27 23:40:00,54.6,-2.4
2023/01/27 23:50:00,55.3,-2.2
